Content
SEND FEEDBACK

Daily
Averages
Monthly
Summary
Turkmenistan

ASHGABAT, TURKMENISTAN


Home > Asia > Turkmenistan
Elevation: 775 feet     Latitude: 37 58N     Longitude: 058 20E

WEATHER
 
SELECT A DAY
Number of Records: 183,440;   Date Range: 3/15/97 - 12/18/14
 
SHARE

PRINT THIS DATA

[ ← Previous Day ]
WEATHER ALMANAC - JULY 1, 2013
[ Next Day → ]
[ °C ]   °F
We're sorry. There is no daily almanac available for Ashgabat, Turkmenistan on July 1, 2013.
WEATHER BY HOUR - JULY 1, 2013
[ °C ]   °F
Local TimeTemperatureDewpointHumidityBarometerVisibilityWind DirectionWind SpeedGust SpeedPrecipitationEventsConditions
1:00 AM82.4 °F46.4 °F28 %29.68 in6.2 miSW (230°)4.5 mphClear
2:00 AM80.0 °F52.0 °F27 %29.67 in6.0 miSW (220°)4.5 mphScattered Clouds
2:00 AM80.6 °F46.4 °F30 %29.68 in6.2 miSW (220°)4.5 mphPartly Cloudy
3:00 AM80.6 °F46.4 °F30 %29.65 in6.2 miSW (220°)6.7 mphPartly Cloudy
4:00 AM78.8 °F48.2 °F34 %29.65 in6.2 miSW (220°)6.7 mphScattered Clouds
5:00 AM76.0 °F53.0 °F34 %29.67 in6.0 miWSW (250°)6.7 mphScattered Clouds
5:00 AM77.0 °F46.4 °F34 %29.65 in6.2 miWSW (250°)6.7 mphPartly Cloudy
6:00 AM78.8 °F44.6 °F30 %29.68 in6.2 miWNW (290°)11.2 mphPartly Cloudy
7:00 AM82.4 °F44.6 °F26 %29.68 in6.2 miWNW (290°)15.7 mphClear
8:00 AM84.0 °F51.0 °F21 %29.68 in6.0 miWNW (300°)15.7 mph
8:00 AM84.2 °F46.4 °F27 %29.68 in6.2 miWNW (290°)15.7 mphClear
9:00 AM87.8 °F46.4 °F24 %29.68 in6.2 miWNW (300°)15.7 mphPartly Cloudy
9:30 AM87.8 °F46.4 °F24 %29.68 in6.2 miNW (310°)15.7 mphPartly Cloudy
10:00 AM89.6 °F44.6 °F21 %29.68 in6.2 miNW (310°)13.4 mphPartly Cloudy
10:30 AM91.4 °F44.6 °F20 %29.68 in6.2 miNW (310°)13.4 mphPartly Cloudy
11:00 AM93.2 °F42.8 °F17 %29.68 in6.2 miNW (310°)11.2 mphPartly Cloudy
11:00 AM92.0 °F52.0 °F17 %29.65 in6.0 miNW (310°)11.2 mphScattered Clouds
12:00 PM95.0 °F42.8 °F16 %29.68 in6.2 miNW (320°)8.9 mphPartly Cloudy
1:00 PM98.6 °F41.0 °F14 %29.65 in6.2 miNW (320°)6.7 mphPartly Cloudy
2:00 PM98.0 °F40.0 °F7 %29.61 in6.0 miWNW (300°)6.7 mph
2:00 PM98.6 °F37.4 °F12 %29.62 in6.2 miWNW (300°)8.9 mphPartly Cloudy
2:30 PM100.4 °F39.2 °F12 %29.62 in6.2 miNorth (350°)6.7 mphPartly Cloudy
3:00 PM100.4 °F39.2 °F12 %29.59 in6.2 miNW (310°)4.5 mphPartly Cloudy
4:00 PM102.2 °F39.2 °F11 %29.59 in6.2 miWNW (300°)4.5 mphPartly Cloudy
5:00 PM102.2 °F39.2 °F11 %29.59 in6.2 miNW (320°)6.7 mphPartly Cloudy
5:00 PM100.0 °F44.0 °F8 %29.55 in6.0 miNNW (340°)6.7 mphScattered Clouds
6:00 PM102.2 °F37.4 °F11 %29.56 in6.2 miWNW (290°)4.5 mphPartly Cloudy
7:00 PM100.4 °F37.4 °F11 %29.56 in6.2 miNNW (330°)4.5 mphPartly Cloudy
8:00 PM97.0 °F54.0 °F15 %29.53 in6.0 miNW (310°)4.5 mphScattered Clouds
8:00 PM98.6 °F39.2 °F13 %29.56 in6.2 miNW (310°)4.5 mphPartly Cloudy
9:00 PM91.4 °F41.0 °F17 %29.56 in6.2 miCalmPartly Cloudy
10:00 PM89.6 °F42.8 °F20 %29.59 in5.6 miNW (310°)4.5 mphPartly Cloudy
Hourly data recorded from UTAA, located miles away from Ashgabat, Turkmenistan







STORIES FROM OUR PARTNERS